Location: Brudzew
(52.0976°N, 18.6049°E)
Time: 11:08:52
(UTC+02:00)

ISS - Visible Passes

Search period start: 22 September 2018 00:00
Search period end: 02 October 2018 00:00
Orbit: 403 x 408 km, 51.6° (Epoch: 22 September)

Date Brightness Start Highest point End Pass type
(mag) Time Alt. Az. Time Alt. Az. Time Alt. Az.
22 Sep -1.5 20:28:08 10° SSW 20:28:50 14° S 20:28:50 14° S visible
23 Sep -1.7 19:37:22 10° SSE 19:38:54 13° SE 19:39:34 12° SE visible
23 Sep -1.3 21:11:38 10° SW 21:12:16 15° SW 21:12:16 15° SW visible
24 Sep -2.9 20:20:01 10° SW 20:22:49 32° SSE 20:22:49 32° SSE visible
25 Sep -2.4 19:28:36 10° SSW 19:31:14 22° SSE 19:33:12 14° ESE visible
25 Sep -2.2 21:04:06 10° WSW 21:05:53 29° WSW 21:05:53 29° WSW visible
26 Sep -3.6 20:12:17 10° WSW 20:15:29 51° SSE 20:16:08 42° ESE visible
26 Sep -0.6 21:48:35 10° W 21:48:48 11° W 21:48:48 11° W visible
27 Sep -3.0 19:20:34 10° SW 19:23:38 37° SSE 19:26:17 13° E visible
27 Sep -2.7 20:56:39 10° W 20:58:57 42° WSW 20:58:57 42° WSW visible
28 Sep -3.9 20:04:42 10° WSW 20:08:00 71° SSE 20:09:02 40° E visible
28 Sep -0.7 21:41:11 10° W 21:41:42 14° W 21:41:42 14° W visible
29 Sep -3.6 19:12:50 10° WSW 19:16:04 57° SSE 19:19:03 12° E visible
29 Sep -3.0 20:49:12 10° W 20:51:43 49° W 20:51:43 49° W visible
30 Sep -3.9 19:57:12 10° W 20:00:31 84° S 20:01:42 37° E visible
30 Sep -0.8 21:33:42 10° W 21:34:21 15° W 21:34:21 15° W visible
01 Oct -3.8 19:05:13 10° WSW 19:08:31 76° S 19:11:39 11° E visible
01 Oct -3.1 20:41:42 10° W 20:44:18 51° W 20:44:18 51° W visible
